| time (UTC) | temp F | wind direction | speed MPH | gust MPH | rain 1hr in | rain 24hr in | rain mn in | humidity % | barometer mb |
| 20260509074606 | 44 | 185 | 0.0 | 0.0 | 0.00 | 0.02 | 0.00 | 60 | 1008.1 |
| 20260509073617 | 44 | 185 | 0.0 | 0.0 | 0.00 | 0.03 | 0.00 | 60 | 1008.1 |
| 20260509072627 | 44 | 185 | 0.0 | 0.0 | 0.00 | 0.03 | 0.00 | 62 | 1008.2 |
| 20260509071611 | 43 | 191 | 0.0 | 0.0 | 0.00 | 0.03 | 0.00 | 63 | 1008.3 |
| 20260509070605 | 43 | 191 | 0.0 | 0.0 | 0.00 | 0.03 | 0.00 | 64 | 1008.4 |
| 20260509065601 | 44 | 191 | 0.0 | 0.0 | 0.00 | 0.03 | 0.00 | 64 | 1008.6 |
| 20260509064538 | 44 | 191 | 0.0 | 0.0 | 0.00 | 0.03 | 0.00 | 64 | 1008.7 |
| 20260509063534 | 44 | 184 | 0.0 | 0.0 | 0.00 | 0.03 | 0.00 | 64 | 1008.9 |
| 20260509062546 | 44 | 184 | 0.0 | 0.0 | 0.00 | 0.03 | 0.00 | 63 | 1008.9 |
| 20260509061550 | 44 | 184 | 0.0 | 0.0 | 0.00 | 0.03 | 0.00 | 63 | 1009.0 |
| 20260509054259 | 45 | 169 | 0.0 | 0.0 | 0.00 | 0.03 | 0.00 | 63 | 1009.3 |
| 20260509053309 | 46 | 160 | 0.0 | 0.0 | 0.00 | 0.03 | 0.00 | 62 | 1009.4 |
| 20260509052253 | 46 | 153 | 0.0 | 0.0 | 0.00 | 0.03 | 0.00 | 62 | 1009.6 |
| 20260509051258 | 46 | 160 | 0.0 | 0.0 | 0.00 | 0.03 | 0.00 | 61 | 1009.7 |
| 20260509050320 | 46 | 194 | 0.0 | 0.0 | 0.00 | 0.03 | 0.00 | 61 | 1009.8 |
| 20260509045248 | 46 | 163 | 0.0 | 0.0 | 0.00 | 0.03 | 0.00 | 61 | 1009.8 |
| 20260509044225 | 46 | 153 | 0.0 | 0.0 | 0.00 | 0.03 | 0.00 | 62 | 1009.9 |
| 20260509043232 | 46 | 171 | 0.0 | 0.0 | 0.00 | 0.03 | 0.00 | 62 | 1010.0 |
| 20260509042234 | 46 | 200 | 0.0 | 1.0 | 0.00 | 0.03 | 0.00 | 61 | 1010.1 |
| 20260509041252 | 46 | 190 | 0.0 | 0.0 | 0.00 | 0.03 | 0.00 | 61 | 1010.1 |
| 20260509040229 | 46 | 210 | 0.0 | 2.0 | 0.00 | 0.03 | 0.00 | 61 | 1010.1 |
| 20260509032910 | 47 | 169 | 0.0 | 1.0 | 0.00 | 0.04 | 0.03 | 60 | 1010.1 |
| 20260509031916 | 47 | 184 | 0.0 | 0.0 | 0.00 | 0.04 | 0.03 | 60 | 1010.2 |
| 20260509030902 | 47 | 160 | 0.0 | 0.0 | 0.00 | 0.04 | 0.03 | 59 | 1010.2 |
| 20260509025902 | 46 | 165 | 0.0 | 0.0 | 0.00 | 0.04 | 0.03 | 58 | 1010.3 |
| 20260509024916 | 47 | 181 | 0.0 | 0.0 | 0.00 | 0.04 | 0.03 | 59 | 1010.3 |
| 20260509023913 | 47 | 162 | 0.0 | 0.0 | 0.00 | 0.04 | 0.03 | 59 | 1010.3 |
| 20260509022909 | 47 | 176 | 0.0 | 0.0 | 0.00 | 0.04 | 0.03 | 61 | 1010.3 |
| 20260509021851 | 46 | 173 | 0.0 | 2.0 | 0.00 | 0.04 | 0.03 | 62 | 1010.3 |
| 20260509020903 | 47 | 308 | 0.0 | 0.0 | 0.00 | 0.04 | 0.03 | 61 | 1010.4 |
| 20260509014750 | 47 | 354 | 0.0 | 0.0 | 0.00 | 0.04 | 0.03 | 62 | 1010.3 |
| 20260509013724 | 47 | 354 | 0.0 | 0.0 | 0.00 | 0.04 | 0.03 | 61 | 1010.3 |
| 20260509012701 | 47 | 354 | 0.0 | 0.0 | 0.00 | 0.04 | 0.03 | 60 | 1010.2 |
| 20260509010658 | 48 | 354 | 0.0 | 0.0 | 0.00 | 0.04 | 0.03 | 60 | 1010.0 |
| 20260509005638 | 48 | 354 | 0.0 | 0.0 | 0.00 | 0.04 | 0.03 | 59 | 1009.8 |
| 20260509004628 | 49 | 354 | 0.0 | 0.0 | 0.00 | 0.04 | 0.03 | 59 | 1009.6 |
| 20260509003649 | 49 | 354 | 0.0 | 0.0 | 0.00 | 0.04 | 0.03 | 58 | 1009.5 |
| 20260509002654 | 50 | 354 | 0.0 | 0.0 | 0.00 | 0.04 | 0.03 | 58 | 1009.5 |
| 20260509001632 | 51 | 354 | 0.0 | 0.0 | 0.00 | 0.04 | 0.03 | 55 | 1009.4 |
| 20260509000634 | 52 | 354 | 0.0 | 0.0 | 0.00 | 0.04 | 0.03 | 52 | 1009.4 |
| 20260508235636 | 53 | 354 | 0.0 | 0.0 | 0.00 | 0.04 | 0.03 | 49 | 1009.4 |
| 20260508233436 | 54 | 354 | 0.0 | 0.0 | 0.00 | 0.04 | 0.03 | 45 | 1009.2 |
| 20260508232453 | 55 | 354 | 0.0 | 0.0 | 0.00 | 0.04 | 0.03 | 41 | 1009.1 |
| 20260508231440 | 56 | 354 | 0.0 | 0.0 | 0.00 | 0.04 | 0.03 | 40 | 1009.2 |
| 20260508230432 | 58 | 21 | 0.0 | 0.0 | 0.00 | 0.04 | 0.03 | 38 | 1009.1 |
| 20260508225432 | 59 | 164 | 0.0 | 2.0 | 0.00 | 0.04 | 0.03 | 35 | 1009.2 |
| 20260508224419 | 60 | 204 | 0.0 | 1.0 | 0.00 | 0.04 | 0.03 | 33 | 1009.1 |
| 20260508223426 | 61 | 23 | 0.0 | 2.0 | 0.00 | 0.04 | 0.03 | 33 | 1009.2 |
| 20260508222358 | 60 | 357 | 0.0 | 2.0 | 0.00 | 0.04 | 0.03 | 37 | 1009.0 |
| 20260508221349 | 61 | 6 | 0.0 | 2.0 | 0.00 | 0.04 | 0.03 | 39 | 1009.1 |
| 20260508220353 | 61 | 1 | 0.0 | 2.0 | 0.00 | 0.04 | 0.03 | 36 | 1009.1 |
| 20260508215358 | 61 | 346 | 0.0 | 2.0 | 0.00 | 0.04 | 0.03 | 40 | 1009.2 |
| 20260508214400 | 61 | 3 | 0.0 | 1.0 | 0.00 | 0.04 | 0.03 | 36 | 1009.3 |
| 20260508213406 | 60 | 16 | 0.0 | 3.0 | 0.00 | 0.04 | 0.03 | 33 | 1009.3 |
| 20260508212358 | 61 | 309 | 0.0 | 4.0 | 0.00 | 0.04 | 0.03 | 37 | 1009.4 |
| 20260508211342 | 61 | 224 | 1.0 | 4.0 | 0.00 | 0.04 | 0.03 | 35 | 1009.4 |
| 20260508210331 | 61 | 6 | 0.0 | 2.0 | 0.00 | 0.04 | 0.03 | 36 | 1009.4 |
| 20260508205345 | 61 | 31 | 1.0 | 4.0 | 0.00 | 0.04 | 0.03 | 37 | 1009.5 |
| 20260508204358 | 60 | 357 | 0.0 | 4.0 | 0.00 | 0.04 | 0.03 | 36 | 1009.6 |
| 20260508203357 | 60 | 115 | 0.0 | 3.0 | 0.00 | 0.04 | 0.03 | 37 | 1009.7 |
| 20260508202359 | 58 | 4 | 0.0 | 3.0 | 0.00 | 0.04 | 0.03 | 36 | 1009.8 |
| 20260508201404 | 57 | 335 | 0.0 | 6.0 | 0.00 | 0.04 | 0.03 | 37 | 1010.1 |
| 20260508200342 | 58 | 7 | 1.0 | 6.0 | 0.00 | 0.04 | 0.03 | 38 | 1010.0 |
| 20260508195359 | 58 | 161 | 0.0 | 3.0 | 0.00 | 0.04 | 0.03 | 40 | 1010.2 |
| 20260508194422 | 58 | 8 | 0.0 | 3.0 | 0.00 | 0.04 | 0.03 | 40 | 1010.2 |
| 20260508193426 | 58 | 147 | 1.0 | 8.0 | 0.00 | 0.04 | 0.03 | 42 | 1010.3 |
| 20260508190129 | 56 | 129 | 0.0 | 4.0 | 0.00 | 0.04 | 0.03 | 47 | 1010.6 |
| 20260508185152 | 56 | 358 | 1.0 | 6.0 | 0.00 | 0.04 | 0.03 | 48 | 1010.6 |
| 20260508184207 | 57 | 15 | 1.0 | 6.0 | 0.00 | 0.04 | 0.03 | 49 | 1010.7 |
| 20260508183206 | 56 | 207 | 1.0 | 5.0 | 0.00 | 0.04 | 0.03 | 48 | 1010.7 |
| 20260508182223 | 56 | 342 | 0.0 | 6.0 | 0.00 | 0.04 | 0.03 | 49 | 1010.7 |
| 20260508181225 | 56 | 359 | 1.0 | 6.0 | 0.00 | 0.04 | 0.03 | 51 | 1010.9 |
| 20260508180228 | 56 | 344 | 1.0 | 4.0 | 0.00 | 0.04 | 0.03 | 48 | 1010.9 |
| 20260508175235 | 55 | 171 | 1.0 | 5.0 | 0.00 | 0.04 | 0.03 | 54 | 1011.0 |
| 20260508174241 | 55 | 198 | 1.0 | 5.0 | 0.00 | 0.04 | 0.03 | 56 | 1011.1 |
| 20260508172126 | 53 | 359 | 3.0 | 6.0 | 0.00 | 0.04 | 0.03 | 55 | 1011.3 |
| 20260508171135 | 53 | 151 | 1.0 | 6.0 | 0.00 | 0.04 | 0.03 | 57 | 1011.4 |
| 20260508170101 | 52 | 129 | 1.0 | 5.0 | 0.00 | 0.04 | 0.03 | 63 | 1011.4 |
| 20260508165103 | 51 | 23 | 1.0 | 5.0 | 0.00 | 0.04 | 0.03 | 61 | 1011.6 |
| 20260508162944 | 49 | 319 | 1.0 | 4.0 | 0.00 | 0.04 | 0.03 | 65 | 1011.9 |
| 20260508162006 | 49 | 172 | 1.0 | 6.0 | 0.00 | 0.04 | 0.03 | 67 | 1011.9 |
| 20260508160936 | 48 | 196 | 1.0 | 6.0 | 0.00 | 0.04 | 0.03 | 71 | 1012.0 |
| 20260508155927 | 48 | 15 | 0.0 | 4.0 | 0.00 | 0.04 | 0.03 | 71 | 1012.0 |
| 20260508154947 | 48 | 356 | 0.0 | 2.0 | 0.00 | 0.04 | 0.03 | 72 | 1012.0 |
| 20260508151717 | 48 | 196 | 0.0 | 4.0 | 0.00 | 0.04 | 0.03 | 74 | 1011.9 |
| 20260508150659 | 48 | 193 | 1.0 | 5.0 | 0.00 | 0.04 | 0.03 | 75 | 1011.9 |
| 20260508145629 | 47 | 150 | 0.0 | 5.0 | 0.00 | 0.04 | 0.03 | 78 | 1011.7 |
| 20260508144600 | 45 | 188 | 0.0 | 3.0 | 0.00 | 0.04 | 0.03 | 80 | 1011.9 |
| 20260508143608 | 45 | 164 | 0.0 | 3.0 | 0.00 | 0.04 | 0.03 | 80 | 1012.0 |
| 20260508141446 | 44 | 93 | 0.0 | 4.0 | 0.00 | 0.04 | 0.03 | 86 | 1012.1 |
| 20260508140416 | 42 | 353 | 0.0 | 2.0 | 0.00 | 0.04 | 0.03 | 87 | 1012.0 |
| 20260508135344 | 42 | 340 | 0.0 | 0.0 | 0.00 | 0.04 | 0.03 | 88 | 1012.0 |
| 20260508134324 | 42 | 344 | 0.0 | 3.0 | 0.00 | 0.04 | 0.03 | 89 | 1012.0 |
| 20260508133317 | 42 | 326 | 0.0 | 2.0 | 0.00 | 0.04 | 0.03 | 90 | 1012.0 |
| 20260508132327 | 41 | 162 | 0.0 | 1.0 | 0.00 | 0.04 | 0.03 | 90 | 1012.0 |
| 20260508130211 | 40 | 13 | 0.0 | 0.0 | 0.04 | 0.04 | 0.03 | 89 | 1012.0 |
| 20260508125218 | 40 | 344 | 0.0 | 2.0 | 0.04 | 0.04 | 0.03 | 87 | 1012.1 |
| 20260508124155 | 41 | 336 | 1.0 | 4.0 | 0.00 | 0.03 | 0.02 | 86 | 1012.0 |
| 20260508123216 | 41 | 359 | 0.0 | 4.0 | 0.00 | 0.02 | 0.01 | 84 | 1011.8 |
| 20260508122222 | 41 | 325 | 0.0 | 0.0 | 0.00 | 0.02 | 0.01 | 87 | 1011.7 |
| 20260508121153 | 41 | 334 | 0.0 | 1.0 | 0.00 | 0.02 | 0.01 | 87 | 1011.5 |
| 20260508120135 | 41 | 223 | 0.0 | 0.0 | 0.00 | 0.02 | 0.01 | 91 | 1011.3 |
| 20260508115152 | 41 | 307 | 0.0 | 0.0 | 0.00 | 0.02 | 0.01 | 92 | 1011.0 |
| 20260508114148 | 41 | 165 | 0.0 | 0.0 | 0.00 | 0.02 | 0.01 | 93 | 1011.0 |
| 20260508113113 | 41 | 159 | 0.0 | 0.0 | 0.00 | 0.02 | 0.01 | 94 | 1010.8 |
| 20260508112114 | 40 | 159 | 0.0 | 0.0 | 0.00 | 0.02 | 0.01 | 94 | 1010.6 |
| 20260508111112 | 40 | 159 | 0.0 | 0.0 | 0.00 | 0.02 | 0.01 | 94 | 1010.5 |
| 20260508110113 | 40 | 159 | 0.0 | 0.0 | 0.00 | 0.02 | 0.01 | 94 | 1010.3 |
| 20260508105114 | 39 | 159 | 0.0 | 0.0 | 0.00 | 0.02 | 0.01 | 94 | 1010.3 |
| 20260508104055 | 39 | 159 | 0.0 | 0.0 | 0.00 | 0.02 | 0.01 | 94 | 1010.3 |
| 20260508100828 | 38 | 159 | 0.0 | 0.0 | 0.00 | 0.02 | 0.01 | 94 | 1010.5 |
| 20260508095817 | 38 | 159 | 0.0 | 0.0 | 0.00 | 0.02 | 0.01 | 94 | 1010.7 |
| 20260508094839 | 38 | 159 | 0.0 | 0.0 | 0.00 | 0.02 | 0.01 | 94 | 1010.6 |
| 20260508093807 | 38 | 159 | 0.0 | 0.0 | 0.00 | 0.02 | 0.01 | 94 | 1011.0 |
| 20260508092813 | 38 | 159 | 0.0 | 0.0 | 0.00 | 0.02 | 0.01 | 94 | 1010.9 |
| 20260508091802 | 37 | 159 | 0.0 | 0.0 | 0.00 | 0.02 | 0.01 | 94 | 1011.0 |
| 20260508084617 | 36 | 159 | 0.0 | 0.0 | 0.00 | 0.02 | 0.01 | 93 | 1011.0 |
| 20260508083636 | 36 | 159 | 0.0 | 0.0 | 0.00 | 0.02 | 0.01 | 93 | 1010.9 |
| 20260508082634 | 37 | 159 | 0.0 | 0.0 | 0.00 | 0.02 | 0.01 | 93 | 1010.7 |
| 20260508081639 | 37 | 159 | 0.0 | 0.0 | 0.00 | 0.02 | 0.01 | 93 | 1010.7 |
| 20260508080606 | 37 | 159 | 0.0 | 0.0 | 0.00 | 0.02 | 0.01 | 93 | 1010.7 |
| 20260508075614 | 37 | 159 | 0.0 | 0.0 | 0.00 | 0.02 | 0.01 | 93 | 1010.7 |